Location: Perryvale
(54.4667°N, 113.3833°W)
Time: 00:14:38
(UTC+00:00)

Vanguard 1 - Pass Details

Date: 27 May 2024
Orbit: 652 x 3825 km, 34.2° (Epoch: 13 June)

Event Time Altitude Azimuth Distance (km) Brightness Sun altitude
Rises 09:40:51 0° 265° (W) 6,294 13.8 -9.2°
Reaches altitude 10° 09:48:43 10° 241° (WSW) 5,969 13.5 -8.6°
Maximum altitude 09:55:18 13° 221° (SW) 6,162 13.4 -8.0°
Drops below altitude 10° 10:02:39 10° 200° (SSW) 6,742 13.7 -7.4°
Sets 10:13:29 0° 178° (S) 7,954 14.2 -6.5°
